Location: Sluknov
(51.0170°N, 14.4670°E)
Time: 10:48:31
(UTC+01:00)

ISS - Pass Details

Date: 25 February 2026
Orbit: 416 x 426 km, 51.6° (Epoch: 10 March)

Event Time Altitude Azimuth Distance (km) Brightness Sun altitude
Exits shadow 04:19:07 33° 79° (ENE) 731 -2.0 -25.1°
Drops below altitude 10° 04:21:05 10° 83° (E) 1,495 0.1 -24.8°
Sets 04:23:11 0° 85° (E) 2,357 1.4 -24.5°
